{"data":{"norad_id":60504,"intl_designator":"2024-149AN","name":"YAM-7","alt_names":[],"object_type":"PAYLOAD","status":"ACTIVE","operator":null,"country":"US","launch_date":"2024-08-16","launch_site_code":"AFWTR","launch_vehicle":null,"mission":null,"orbit_class":"UNKNOWN","rcs_meters":null,"size_class":null,"mass_kg":null,"dimensions":null,"purposes":[],"wikipedia_slug":null,"has_3d_model":false,"image_url":null,"decayed_at":null,"tle_current":{"epoch":"2026-09-22T17:50:57.238656Z","epoch_age_seconds":92415,"freshness":"FRESH","line1":"1 60504U 24149AN  26265.74371804  .00005125  00000+0  16337-3 0  9995","line2":"2 60504  97.3723 345.6412 0002133 330.2834  29.8287 15.32980163116995","mean_motion":15.32980163,"eccentricity":0.0002133,"inclination_deg":97.3723,"raan_deg":345.6412,"arg_perigee_deg":330.2834,"mean_anomaly_deg":29.8287,"bstar":0.00016337,"rev_number":11699,"period_min":93.934679310002,"perigee_km":465.46649975527,"apogee_km":468.38660386648,"semimajor_km":6845.0635518109,"source":"CELESTRAK","updated_at":"2026-09-23T09:00:20.659239Z"}}}